owner,sensor,date,latitude,longitude,sea_surface_height_above_sea_level,qcFlag 
COMPS,ioos:station:USF.COMPS:ARP:1,2009-08-03T14:00:00Z,28.4330,-82.6670,0.272,1111122 
COMPS,ioos:station:USF.COMPS:ARP:1,2009-08-03T14:06:00Z,28.4330,-82.6670,0.29,1111122 
COMPS,ioos:station:USF.COMPS:ARP:1,2009-08-03T14:12:00Z,28.4330,-82.6670,0.307,1111122 
COMPS,ioos:station:USF.COMPS:ARP:1,2009-08-03T14:18:00Z,28.4330,-82.6670,0.326,1111122 
COMPS,ioos:station:USF.COMPS:ARP:1,2009-08-03T14:24:00Z,28.4330,-82.6670,0.347,1111122 
COMPS,ioos:station:USF.COMPS:ARP:1,2009-08-03T14:30:00Z,28.4330,-82.6670,0.364,1111122 
COMPS,ioos:station:USF.COMPS:ARP:1,2009-08-03T14:36:00Z,28.4330,-82.6670,0.384,1111122 
COMPS,ioos:station:USF.COMPS:ARP:1,2009-08-03T14:42:00Z,28.4330,-82.6670,0.404,1111122 
COMPS,ioos:station:USF.COMPS:ARP:1,2009-08-03T14:48:00Z,28.4330,-82.6670,0.421,1111122 
COMPS,ioos:station:USF.COMPS:ARP:1,2009-08-03T14:54:00Z,28.4330,-82.6670,0.438,1111122 
COMPS,ioos:station:USF.COMPS:ARP:1,2009-08-03T15:00:00Z,28.4330,-82.6670,0.458,1111122 
COMPS,ioos:station:USF.COMPS:ARP:1,2009-08-03T15:06:00Z,28.4330,-82.6670,0.473,1111122 
COMPS,ioos:station:USF.COMPS:ARP:1,2009-08-03T15:12:00Z,28.4330,-82.6670,0.488,1111122 
COMPS,ioos:station:USF.COMPS:ARP:1,2009-08-03T15:18:00Z,28.4330,-82.6670,0.501,1111122 
COMPS,ioos:station:USF.COMPS:ARP:1,2009-08-03T15:24:00Z,28.4330,-82.6670,0.514,1111122 
COMPS,ioos:station:USF.COMPS:ARP:1,2009-08-03T15:30:00Z,28.4330,-82.6670,0.526,1111122 
COMPS,ioos:station:USF.COMPS:ARP:1,2009-08-03T15:36:00Z,28.4330,-82.6670,0.535,1111122 
COMPS,ioos:station:USF.COMPS:ARP:1,2009-08-03T15:42:00Z,28.4330,-82.6670,0.544,1111122 
COMPS,ioos:station:USF.COMPS:ARP:1,2009-08-03T15:48:00Z,28.4330,-82.6670,0.55,1111122 
COMPS,ioos:station:USF.COMPS:ARP:1,2009-08-03T15:54:00Z,28.4330,-82.6670,0.553,1111122 
COMPS,ioos:station:USF.COMPS:ARP:1,2009-08-03T16:00:00Z,28.4330,-82.6670,0.556,1111122 
COMPS,ioos:station:USF.COMPS:ARP:1,2009-08-03T16:06:00Z,28.4330,-82.6670,0.558,1111122 
COMPS,ioos:station:USF.COMPS:ARP:1,2009-08-03T16:12:00Z,28.4330,-82.6670,0.555,1111122 
COMPS,ioos:station:USF.COMPS:ARP:1,2009-08-03T16:18:00Z,28.4330,-82.6670,0.554,1111122 
COMPS,ioos:station:USF.COMPS:ARP:1,2009-08-03T16:24:00Z,28.4330,-82.6670,0.551,1111122 
COMPS,ioos:station:USF.COMPS:ARP:1,2009-08-03T16:30:00Z,28.4330,-82.6670,0.545,1111122 
COMPS,ioos:station:USF.COMPS:ARP:1,2009-08-03T16:36:00Z,28.4330,-82.6670,0.539,1111122 
COMPS,ioos:station:USF.COMPS:ARP:1,2009-08-03T16:42:00Z,28.4330,-82.6670,0.528,1111122 
COMPS,ioos:station:USF.COMPS:ARP:1,2009-08-03T16:48:00Z,28.4330,-82.6670,0.527,1111122 
COMPS,ioos:station:USF.COMPS:ARP:1,2009-08-03T16:54:00Z,28.4330,-82.6670,0.511,1111122 
COMPS,ioos:station:USF.COMPS:ARP:1,2009-08-03T17:00:00Z,28.4330,-82.6670,0.5,1111122 
COMPS,ioos:station:USF.COMPS:ARP:1,2009-08-03T17:06:00Z,28.4330,-82.6670,0.489,1111122 
COMPS,ioos:station:USF.COMPS:ARP:1,2009-08-03T17:12:00Z,28.4330,-82.6670,0.477,1111122 
COMPS,ioos:station:USF.COMPS:ARP:1,2009-08-03T17:18:00Z,28.4330,-82.6670,0.468,1111122 
COMPS,ioos:station:USF.COMPS:ARP:1,2009-08-03T17:24:00Z,28.4330,-82.6670,0.455,1111122 
COMPS,ioos:station:USF.COMPS:ARP:1,2009-08-03T17:30:00Z,28.4330,-82.6670,0.443,1111122 
COMPS,ioos:station:USF.COMPS:ARP:1,2009-08-03T17:36:00Z,28.4330,-82.6670,0.43,1111122 
COMPS,ioos:station:USF.COMPS:ARP:1,2009-08-03T17:42:00Z,28.4330,-82.6670,0.418,1111122 
COMPS,ioos:station:USF.COMPS:ARP:1,2009-08-03T17:48:00Z,28.4330,-82.6670,0.403,1111122 
COMPS,ioos:station:USF.COMPS:ARP:1,2009-08-03T17:54:00Z,28.4330,-82.6670,0.39,1111122 
COMPS,ioos:station:USF.COMPS:ARP:1,2009-08-03T18:00:00Z,28.4330,-82.6670,0.375,1111122 
COMPS,ioos:station:USF.COMPS:ARP:1,2009-08-03T18:06:00Z,28.4330,-82.6670,0.359,1111122 
COMPS,ioos:station:USF.COMPS:ARP:1,2009-08-03T18:12:00Z,28.4330,-82.6670,0.347,1111122 
COMPS,ioos:station:USF.COMPS:ARP:1,2009-08-03T18:18:00Z,28.4330,-82.6670,0.334,1111122 
COMPS,ioos:station:USF.COMPS:ARP:1,2009-08-03T18:24:00Z,28.4330,-82.6670,0.318,1111122 
COMPS,ioos:station:USF.COMPS:ARP:1,2009-08-03T18:30:00Z,28.4330,-82.6670,0.299,1111122 
COMPS,ioos:station:USF.COMPS:ARP:1,2009-08-03T18:36:00Z,28.4330,-82.6670,0.282,1111122 
COMPS,ioos:station:USF.COMPS:ARP:1,2009-08-03T18:42:00Z,28.4330,-82.6670,0.265,1111122 
COMPS,ioos:station:USF.COMPS:ARP:1,2009-08-03T18:48:00Z,28.4330,-82.6670,0.25,1111122 
COMPS,ioos:station:USF.COMPS:ARP:1,2009-08-03T18:54:00Z,28.4330,-82.6670,0.235,1111122 
COMPS,ioos:station:USF.COMPS:ARP:1,2009-08-03T19:00:00Z,28.4330,-82.6670,0.216,1111122 
COMPS,ioos:station:USF.COMPS:ARP:1,2009-08-03T19:06:00Z,28.4330,-82.6670,0.201,1111122 
COMPS,ioos:station:USF.COMPS:ARP:1,2009-08-03T19:12:00Z,28.4330,-82.6670,0.185,1111122 
COMPS,ioos:station:USF.COMPS:ARP:1,2009-08-03T19:18:00Z,28.4330,-82.6670,0.169,1111122 
COMPS,ioos:station:USF.COMPS:ARP:1,2009-08-03T19:24:00Z,28.4330,-82.6670,0.152,1111122 
COMPS,ioos:station:USF.COMPS:ARP:1,2009-08-03T19:30:00Z,28.4330,-82.6670,0.136,1111122 
COMPS,ioos:station:USF.COMPS:ARP:1,2009-08-03T19:36:00Z,28.4330,-82.6670,0.119,1111122 
COMPS,ioos:station:USF.COMPS:ARP:1,2009-08-03T19:42:00Z,28.4330,-82.6670,0.102,1111122 
COMPS,ioos:station:USF.COMPS:ARP:1,2009-08-03T19:48:00Z,28.4330,-82.6670,0.087,1111122 
COMPS,ioos:station:USF.COMPS:ARP:1,2009-08-03T19:54:00Z,28.4330,-82.6670,0.069,1111122 
COMPS,ioos:station:USF.COMPS:ARP:1,2009-08-03T20:00:00Z,28.4330,-82.6670,0.055,1111122 
COMPS,ioos:station:USF.COMPS:ARP:1,2009-08-03T20:06:00Z,28.4330,-82.6670,0.037,1111122 
COMPS,ioos:station:USF.COMPS:ARP:1,2009-08-03T20:12:00Z,28.4330,-82.6670,0.019,1111122 
COMPS,ioos:station:USF.COMPS:ARP:1,2009-08-03T20:18:00Z,28.4330,-82.6670,0.002,1111122 
COMPS,ioos:station:USF.COMPS:ARP:1,2009-08-03T20:24:00Z,28.4330,-82.6670,-0.016,1111122 
COMPS,ioos:station:USF.COMPS:ARP:1,2009-08-03T20:30:00Z,28.4330,-82.6670,-0.033,1111122 
COMPS,ioos:station:USF.COMPS:ARP:1,2009-08-03T20:36:00Z,28.4330,-82.6670,-0.048,1111122 
COMPS,ioos:station:USF.COMPS:ARP:1,2009-08-03T20:42:00Z,28.4330,-82.6670,-0.065,1111122 
COMPS,ioos:station:USF.COMPS:ARP:1,2009-08-03T20:48:00Z,28.4330,-82.6670,-0.079,1111122 
COMPS,ioos:station:USF.COMPS:ARP:1,2009-08-03T20:54:00Z,28.4330,-82.6670,-0.095,1111122 
COMPS,ioos:station:USF.COMPS:ARP:1,2009-08-03T21:00:00Z,28.4330,-82.6670,-0.11,1111122 
COMPS,ioos:station:USF.COMPS:ARP:1,2009-08-03T21:06:00Z,28.4330,-82.6670,-0.124,1111122 
COMPS,ioos:station:USF.COMPS:ARP:1,2009-08-03T21:12:00Z,28.4330,-82.6670,-0.14,1111122 
COMPS,ioos:station:USF.COMPS:ARP:1,2009-08-03T21:18:00Z,28.4330,-82.6670,-0.154,1111122 
COMPS,ioos:station:USF.COMPS:ARP:1,2009-08-03T21:24:00Z,28.4330,-82.6670,-0.169,1111122 
COMPS,ioos:station:USF.COMPS:ARP:1,2009-08-03T21:30:00Z,28.4330,-82.6670,-0.183,1111122 
COMPS,ioos:station:USF.COMPS:ARP:1,2009-08-03T21:36:00Z,28.4330,-82.6670,-0.196,1111122 
COMPS,ioos:station:USF.COMPS:ARP:1,2009-08-03T21:42:00Z,28.4330,-82.6670,-0.21,1111122 
COMPS,ioos:station:USF.COMPS:ARP:1,2009-08-03T21:48:00Z,28.4330,-82.6670,-0.222,1111122 
COMPS,ioos:station:USF.COMPS:ARP:1,2009-08-03T21:54:00Z,28.4330,-82.6670,-0.235,1111122 
COMPS,ioos:station:USF.COMPS:ARP:1,2009-08-03T22:00:00Z,28.4330,-82.6670,-0.247,1111122 
COMPS,ioos:station:USF.COMPS:ARP:1,2009-08-03T22:06:00Z,28.4330,-82.6670,-0.26,1111122 
COMPS,ioos:station:USF.COMPS:ARP:1,2009-08-03T22:12:00Z,28.4330,-82.6670,-0.272,1111122 
COMPS,ioos:station:USF.COMPS:ARP:1,2009-08-03T22:18:00Z,28.4330,-82.6670,-0.283,1111122 
COMPS,ioos:station:USF.COMPS:ARP:1,2009-08-03T22:24:00Z,28.4330,-82.6670,-0.293,1111122 
COMPS,ioos:station:USF.COMPS:ARP:1,2009-08-03T22:30:00Z,28.4330,-82.6670,-0.305,1111122 
COMPS,ioos:station:USF.COMPS:ARP:1,2009-08-03T22:36:00Z,28.4330,-82.6670,-0.316,1111122 
COMPS,ioos:station:USF.COMPS:ARP:1,2009-08-03T22:42:00Z,28.4330,-82.6670,-0.326,1111122 
COMPS,ioos:station:USF.COMPS:ARP:1,2009-08-03T22:48:00Z,28.4330,-82.6670,-0.335,1111122 
COMPS,ioos:station:USF.COMPS:ARP:1,2009-08-03T22:54:00Z,28.4330,-82.6670,-0.345,1111122 
COMPS,ioos:station:USF.COMPS:ARP:1,2009-08-03T23:00:00Z,28.4330,-82.6670,-0.355,1111122 
COMPS,ioos:station:USF.COMPS:ARP:1,2009-08-03T23:06:00Z,28.4330,-82.6670,-0.367,1111122 
COMPS,ioos:station:USF.COMPS:ARP:1,2009-08-03T23:12:00Z,28.4330,-82.6670,-0.378,1111122 
COMPS,ioos:station:USF.COMPS:ARP:1,2009-08-03T23:18:00Z,28.4330,-82.6670,-0.387,1111122 
COMPS,ioos:station:USF.COMPS:ARP:1,2009-08-03T23:24:00Z,28.4330,-82.6670,-0.394,1111122 
COMPS,ioos:station:USF.COMPS:ARP:1,2009-08-03T23:30:00Z,28.4330,-82.6670,-0.401,1111122 
COMPS,ioos:station:USF.COMPS:ARP:1,2009-08-03T23:36:00Z,28.4330,-82.6670,-0.41,1111122 
COMPS,ioos:station:USF.COMPS:ARP:1,2009-08-03T23:42:00Z,28.4330,-82.6670,-0.417,1111122 
COMPS,ioos:station:USF.COMPS:ARP:1,2009-08-03T23:48:00Z,28.4330,-82.6670,-0.424,1111122 
COMPS,ioos:station:USF.COMPS:ARP:1,2009-08-03T23:54:00Z,28.4330,-82.6670,-0.431,1111122 
COMPS,ioos:station:USF.COMPS:ARP:1,2009-08-04T00:00:00Z,28.4330,-82.6670,-0.437,1111122 
COMPS,ioos:station:USF.COMPS:ARP:1,2009-08-04T00:06:00Z,28.4330,-82.6670,-0.443,1111122 
COMPS,ioos:station:USF.COMPS:ARP:1,2009-08-04T00:12:00Z,28.4330,-82.6670,-0.449,1111122 
COMPS,ioos:station:USF.COMPS:ARP:1,2009-08-04T00:18:00Z,28.4330,-82.6670,-0.454,1111122 
COMPS,ioos:station:USF.COMPS:ARP:1,2009-08-04T00:24:00Z,28.4330,-82.6670,-0.46,1111122 
COMPS,ioos:station:USF.COMPS:ARP:1,2009-08-04T00:30:00Z,28.4330,-82.6670,-0.465,1111122 
COMPS,ioos:station:USF.COMPS:ARP:1,2009-08-04T00:36:00Z,28.4330,-82.6670,-0.47,1111122 
COMPS,ioos:station:USF.COMPS:ARP:1,2009-08-04T00:42:00Z,28.4330,-82.6670,-0.475,1111122 
COMPS,ioos:station:USF.COMPS:ARP:1,2009-08-04T00:48:00Z,28.4330,-82.6670,-0.48,1111122 
COMPS,ioos:station:USF.COMPS:ARP:1,2009-08-04T00:54:00Z,28.4330,-82.6670,-0.484,1111122 
COMPS,ioos:station:USF.COMPS:ARP:1,2009-08-04T01:00:00Z,28.4330,-82.6670,-0.488,1111122 
COMPS,ioos:station:USF.COMPS:ARP:1,2009-08-04T01:06:00Z,28.4330,-82.6670,-0.49,1111122 
COMPS,ioos:station:USF.COMPS:ARP:1,2009-08-04T01:12:00Z,28.4330,-82.6670,-0.493,1111122 
COMPS,ioos:station:USF.COMPS:ARP:1,2009-08-04T01:18:00Z,28.4330,-82.6670,-0.495,1111122 
COMPS,ioos:station:USF.COMPS:ARP:1,2009-08-04T01:24:00Z,28.4330,-82.6670,-0.494,1111122 
COMPS,ioos:station:USF.COMPS:ARP:1,2009-08-04T01:30:00Z,28.4330,-82.6670,-0.491,1111122 
COMPS,ioos:station:USF.COMPS:ARP:1,2009-08-04T01:36:00Z,28.4330,-82.6670,-0.488,1111122 
COMPS,ioos:station:USF.COMPS:ARP:1,2009-08-04T01:42:00Z,28.4330,-82.6670,-0.483,1111122 
COMPS,ioos:station:USF.COMPS:ARP:1,2009-08-04T01:48:00Z,28.4330,-82.6670,-0.477,1111122 
COMPS,ioos:station:USF.COMPS:ARP:1,2009-08-04T01:54:00Z,28.4330,-82.6670,-0.47,1111122 
COMPS,ioos:station:USF.COMPS:ARP:1,2009-08-04T02:00:00Z,28.4330,-82.6670,-0.463,1111122 
COMPS,ioos:station:USF.COMPS:ARP:1,2009-08-04T02:06:00Z,28.4330,-82.6670,-0.454,1111122 
COMPS,ioos:station:USF.COMPS:ARP:1,2009-08-04T02:12:00Z,28.4330,-82.6670,-0.446,1111122 
COMPS,ioos:station:USF.COMPS:ARP:1,2009-08-04T02:18:00Z,28.4330,-82.6670,-0.436,1111122 
COMPS,ioos:station:USF.COMPS:ARP:1,2009-08-04T02:24:00Z,28.4330,-82.6670,-0.426,1111122 
COMPS,ioos:station:USF.COMPS:ARP:1,2009-08-04T02:30:00Z,28.4330,-82.6670,-0.415,1111122 
COMPS,ioos:station:USF.COMPS:ARP:1,2009-08-04T02:36:00Z,28.4330,-82.6670,-0.402,1111122 
COMPS,ioos:station:USF.COMPS:ARP:1,2009-08-04T02:42:00Z,28.4330,-82.6670,-0.388,1111122 
COMPS,ioos:station:USF.COMPS:ARP:1,2009-08-04T02:48:00Z,28.4330,-82.6670,-0.372,1111122 
COMPS,ioos:station:USF.COMPS:ARP:1,2009-08-04T02:54:00Z,28.4330,-82.6670,-0.356,1111122 
COMPS,ioos:station:USF.COMPS:ARP:1,2009-08-04T03:00:00Z,28.4330,-82.6670,-0.338,1111122 
COMPS,ioos:station:USF.COMPS:ARP:1,2009-08-04T03:06:00Z,28.4330,-82.6670,-0.32,1111122 
COMPS,ioos:station:USF.COMPS:ARP:1,2009-08-04T03:12:00Z,28.4330,-82.6670,-0.3,1111122 
COMPS,ioos:station:USF.COMPS:ARP:1,2009-08-04T03:18:00Z,28.4330,-82.6670,-0.279,1111122 
COMPS,ioos:station:USF.COMPS:ARP:1,2009-08-04T03:24:00Z,28.4330,-82.6670,-0.255,1111122 
COMPS,ioos:station:USF.COMPS:ARP:1,2009-08-04T03:30:00Z,28.4330,-82.6670,-0.231,1111122 
COMPS,ioos:station:USF.COMPS:ARP:1,2009-08-04T03:36:00Z,28.4330,-82.6670,-0.204,1111122 
COMPS,ioos:station:USF.COMPS:ARP:1,2009-08-04T03:42:00Z,28.4330,-82.6670,-0.175,1111122 
COMPS,ioos:station:USF.COMPS:ARP:1,2009-08-04T03:48:00Z,28.4330,-82.6670,-0.155,1111122 
COMPS,ioos:station:USF.COMPS:ARP:1,2009-08-04T03:54:00Z,28.4330,-82.6670,-0.129,1111122 
COMPS,ioos:station:USF.COMPS:ARP:1,2009-08-04T04:00:00Z,28.4330,-82.6670,-0.111,1111122 
COMPS,ioos:station:USF.COMPS:ARP:1,2009-08-04T04:06:00Z,28.4330,-82.6670,-0.091,1111122 
COMPS,ioos:station:USF.COMPS:ARP:1,2009-08-04T04:12:00Z,28.4330,-82.6670,-0.07,1111122 
COMPS,ioos:station:USF.COMPS:ARP:1,2009-08-04T04:18:00Z,28.4330,-82.6670,-0.052,1111122 
COMPS,ioos:station:USF.COMPS:ARP:1,2009-08-04T04:24:00Z,28.4330,-82.6670,-0.035,1111122 
COMPS,ioos:station:USF.COMPS:ARP:1,2009-08-04T04:30:00Z,28.4330,-82.6670,-0.018,1111122 
COMPS,ioos:station:USF.COMPS:ARP:1,2009-08-04T04:36:00Z,28.4330,-82.6670,-0.002,1111122 
COMPS,ioos:station:USF.COMPS:ARP:1,2009-08-04T04:42:00Z,28.4330,-82.6670,0.015,1111122 
COMPS,ioos:station:USF.COMPS:ARP:1,2009-08-04T04:48:00Z,28.4330,-82.6670,0.032,1111122 
COMPS,ioos:station:USF.COMPS:ARP:1,2009-08-04T04:54:00Z,28.4330,-82.6670,0.048,1111122 
COMPS,ioos:station:USF.COMPS:ARP:1,2009-08-04T05:00:00Z,28.4330,-82.6670,0.064,1111122 
COMPS,ioos:station:USF.COMPS:ARP:1,2009-08-04T05:06:00Z,28.4330,-82.6670,0.082,1111122 
COMPS,ioos:station:USF.COMPS:ARP:1,2009-08-04T05:12:00Z,28.4330,-82.6670,0.098,1111122 
COMPS,ioos:station:USF.COMPS:ARP:1,2009-08-04T05:18:00Z,28.4330,-82.6670,0.111,1111122 
COMPS,ioos:station:USF.COMPS:ARP:1,2009-08-04T05:24:00Z,28.4330,-82.6670,0.126,1111122 
COMPS,ioos:station:USF.COMPS:ARP:1,2009-08-04T05:30:00Z,28.4330,-82.6670,0.139,1111122 
COMPS,ioos:station:USF.COMPS:ARP:1,2009-08-04T05:36:00Z,28.4330,-82.6670,0.151,1111122 
COMPS,ioos:station:USF.COMPS:ARP:1,2009-08-04T05:42:00Z,28.4330,-82.6670,0.161,1111122 
COMPS,ioos:station:USF.COMPS:ARP:1,2009-08-04T05:48:00Z,28.4330,-82.6670,0.17,1111122 
COMPS,ioos:station:USF.COMPS:ARP:1,2009-08-04T05:54:00Z,28.4330,-82.6670,0.179,1111122 
COMPS,ioos:station:USF.COMPS:ARP:1,2009-08-04T06:00:00Z,28.4330,-82.6670,0.187,1111122 
COMPS,ioos:station:USF.COMPS:ARP:1,2009-08-04T06:06:00Z,28.4330,-82.6670,0.193,1111122 
COMPS,ioos:station:USF.COMPS:ARP:1,2009-08-04T06:12:00Z,28.4330,-82.6670,0.198,1111122 
COMPS,ioos:station:USF.COMPS:ARP:1,2009-08-04T06:18:00Z,28.4330,-82.6670,0.202,1111122 
COMPS,ioos:station:USF.COMPS:ARP:1,2009-08-04T06:24:00Z,28.4330,-82.6670,0.204,1111122 
COMPS,ioos:station:USF.COMPS:ARP:1,2009-08-04T06:30:00Z,28.4330,-82.6670,0.206,1111122 
COMPS,ioos:station:USF.COMPS:ARP:1,2009-08-04T06:36:00Z,28.4330,-82.6670,0.2,1111122 
COMPS,ioos:station:USF.COMPS:ARP:1,2009-08-04T06:42:00Z,28.4330,-82.6670,0.2,1111122 
COMPS,ioos:station:USF.COMPS:ARP:1,2009-08-04T06:48:00Z,28.4330,-82.6670,0.191,1111122 
COMPS,ioos:station:USF.COMPS:ARP:1,2009-08-04T06:54:00Z,28.4330,-82.6670,0.189,1111122 
COMPS,ioos:station:USF.COMPS:ARP:1,2009-08-04T07:00:00Z,28.4330,-82.6670,0.177,1111122 
COMPS,ioos:station:USF.COMPS:ARP:1,2009-08-04T07:06:00Z,28.4330,-82.6670,0.173,1111122 
COMPS,ioos:station:USF.COMPS:ARP:1,2009-08-04T07:12:00Z,28.4330,-82.6670,0.164,1111122 
COMPS,ioos:station:USF.COMPS:ARP:1,2009-08-04T07:18:00Z,28.4330,-82.6670,0.154,1111122 
COMPS,ioos:station:USF.COMPS:ARP:1,2009-08-04T07:24:00Z,28.4330,-82.6670,0.144,1111122 
COMPS,ioos:station:USF.COMPS:ARP:1,2009-08-04T07:30:00Z,28.4330,-82.6670,0.138,1111122 
COMPS,ioos:station:USF.COMPS:ARP:1,2009-08-04T07:36:00Z,28.4330,-82.6670,0.13,1111122 
COMPS,ioos:station:USF.COMPS:ARP:1,2009-08-04T07:42:00Z,28.4330,-82.6670,0.122,1111122 
COMPS,ioos:station:USF.COMPS:ARP:1,2009-08-04T07:48:00Z,28.4330,-82.6670,0.109,1111122 
COMPS,ioos:station:USF.COMPS:ARP:1,2009-08-04T07:54:00Z,28.4330,-82.6670,0.102,1111122 
COMPS,ioos:station:USF.COMPS:ARP:1,2009-08-04T08:00:00Z,28.4330,-82.6670,0.095,1111122 
COMPS,ioos:station:USF.COMPS:ARP:1,2009-08-04T08:06:00Z,28.4330,-82.6670,0.081,1111122 
COMPS,ioos:station:USF.COMPS:ARP:1,2009-08-04T08:12:00Z,28.4330,-82.6670,0.068,1111122 
COMPS,ioos:station:USF.COMPS:ARP:1,2009-08-04T08:18:00Z,28.4330,-82.6670,0.057,1111122 
COMPS,ioos:station:USF.COMPS:ARP:1,2009-08-04T08:24:00Z,28.4330,-82.6670,0.046,1111122 
COMPS,ioos:station:USF.COMPS:ARP:1,2009-08-04T08:30:00Z,28.4330,-82.6670,0.036,1111122 
COMPS,ioos:station:USF.COMPS:ARP:1,2009-08-04T08:36:00Z,28.4330,-82.6670,0.026,1111122 
COMPS,ioos:station:USF.COMPS:ARP:1,2009-08-04T08:42:00Z,28.4330,-82.6670,0.018,1111122 
COMPS,ioos:station:USF.COMPS:ARP:1,2009-08-04T08:48:00Z,28.4330,-82.6670,0.006,1111122 
COMPS,ioos:station:USF.COMPS:ARP:1,2009-08-04T08:54:00Z,28.4330,-82.6670,-0.003,1111122 
COMPS,ioos:station:USF.COMPS:ARP:1,2009-08-04T09:00:00Z,28.4330,-82.6670,-0.013,1111122 
COMPS,ioos:station:USF.COMPS:ARP:1,2009-08-04T09:06:00Z,28.4330,-82.6670,-0.022,1111122 
COMPS,ioos:station:USF.COMPS:ARP:1,2009-08-04T09:12:00Z,28.4330,-82.6670,-0.031,1111122 
COMPS,ioos:station:USF.COMPS:ARP:1,2009-08-04T09:18:00Z,28.4330,-82.6670,-0.042,1111122 
COMPS,ioos:station:USF.COMPS:ARP:1,2009-08-04T09:24:00Z,28.4330,-82.6670,-0.052,1111122 
COMPS,ioos:station:USF.COMPS:ARP:1,2009-08-04T09:30:00Z,28.4330,-82.6670,-0.062,1111122 
COMPS,ioos:station:USF.COMPS:ARP:1,2009-08-04T09:36:00Z,28.4330,-82.6670,-0.071,1111122 
COMPS,ioos:station:USF.COMPS:ARP:1,2009-08-04T09:42:00Z,28.4330,-82.6670,-0.083,1111122 
COMPS,ioos:station:USF.COMPS:ARP:1,2009-08-04T09:48:00Z,28.4330,-82.6670,-0.091,1111122 
COMPS,ioos:station:USF.COMPS:ARP:1,2009-08-04T09:54:00Z,28.4330,-82.6670,-0.1,1111122 
COMPS,ioos:station:USF.COMPS:ARP:1,2009-08-04T10:00:00Z,28.4330,-82.6670,-0.108,1111122 
COMPS,ioos:station:USF.COMPS:ARP:1,2009-08-04T10:06:00Z,28.4330,-82.6670,-0.115,1111122 
COMPS,ioos:station:USF.COMPS:ARP:1,2009-08-04T10:12:00Z,28.4330,-82.6670,-0.128,1111122 
COMPS,ioos:station:USF.COMPS:ARP:1,2009-08-04T10:18:00Z,28.4330,-82.6670,-0.136,1111122 
COMPS,ioos:station:USF.COMPS:ARP:1,2009-08-04T10:24:00Z,28.4330,-82.6670,-0.146,1111122 
COMPS,ioos:station:USF.COMPS:ARP:1,2009-08-04T10:30:00Z,28.4330,-82.6670,-0.155,1111122 
COMPS,ioos:station:USF.COMPS:ARP:1,2009-08-04T10:36:00Z,28.4330,-82.6670,-0.163,1111122 
COMPS,ioos:station:USF.COMPS:ARP:1,2009-08-04T10:42:00Z,28.4330,-82.6670,-0.172,1111122 
COMPS,ioos:station:USF.COMPS:ARP:1,2009-08-04T10:48:00Z,28.4330,-82.6670,-0.18,1111122 
COMPS,ioos:station:USF.COMPS:ARP:1,2009-08-04T10:54:00Z,28.4330,-82.6670,-0.187,1111122 
COMPS,ioos:station:USF.COMPS:ARP:1,2009-08-04T11:00:00Z,28.4330,-82.6670,-0.194,1111122 
COMPS,ioos:station:USF.COMPS:ARP:1,2009-08-04T11:06:00Z,28.4330,-82.6670,-0.202,1111122 
COMPS,ioos:station:USF.COMPS:ARP:1,2009-08-04T11:12:00Z,28.4330,-82.6670,-0.205,1111122 
COMPS,ioos:station:USF.COMPS:ARP:1,2009-08-04T11:18:00Z,28.4330,-82.6670,-0.211,1111122 
COMPS,ioos:station:USF.COMPS:ARP:1,2009-08-04T11:24:00Z,28.4330,-82.6670,-0.214,1111122 
COMPS,ioos:station:USF.COMPS:ARP:1,2009-08-04T11:30:00Z,28.4330,-82.6670,-0.209,1111122 
COMPS,ioos:station:USF.COMPS:ARP:1,2009-08-04T11:36:00Z,28.4330,-82.6670,-0.207,1111122 
COMPS,ioos:station:USF.COMPS:ARP:1,2009-08-04T11:42:00Z,28.4330,-82.6670,-0.195,1111122 
COMPS,ioos:station:USF.COMPS:ARP:1,2009-08-04T11:48:00Z,28.4330,-82.6670,-0.186,1111122 
COMPS,ioos:station:USF.COMPS:ARP:1,2009-08-04T11:54:00Z,28.4330,-82.6670,-0.172,1111122 
COMPS,ioos:station:USF.COMPS:ARP:1,2009-08-04T12:00:00Z,28.4330,-82.6670,-0.159,1111122 
COMPS,ioos:station:USF.COMPS:ARP:1,2009-08-04T12:06:00Z,28.4330,-82.6670,-0.143,1111122 
COMPS,ioos:station:USF.COMPS:ARP:1,2009-08-04T12:12:00Z,28.4330,-82.6670,-0.123,1111122 
COMPS,ioos:station:USF.COMPS:ARP:1,2009-08-04T12:18:00Z,28.4330,-82.6670,-0.106,1111122 
COMPS,ioos:station:USF.COMPS:ARP:1,2009-08-04T12:24:00Z,28.4330,-82.6670,-0.082,1111122 
COMPS,ioos:station:USF.COMPS:ARP:1,2009-08-04T12:30:00Z,28.4330,-82.6670,-0.057,1111122 
COMPS,ioos:station:USF.COMPS:ARP:1,2009-08-04T12:36:00Z,28.4330,-82.6670,-0.033,1111122 
COMPS,ioos:station:USF.COMPS:ARP:1,2009-08-04T12:42:00Z,28.4330,-82.6670,-0.008,1111122 
COMPS,ioos:station:USF.COMPS:ARP:1,2009-08-04T12:48:00Z,28.4330,-82.6670,0.008,1111122 
COMPS,ioos:station:USF.COMPS:ARP:1,2009-08-04T12:54:00Z,28.4330,-82.6670,0.018,1111122 
COMPS,ioos:station:USF.COMPS:ARP:1,2009-08-04T13:00:00Z,28.4330,-82.6670,0.013,1111122 
COMPS,ioos:station:USF.COMPS:ARP:1,2009-08-04T13:06:00Z,28.4330,-82.6670,0.013,1111122 
COMPS,ioos:station:USF.COMPS:ARP:1,2009-08-04T13:12:00Z,28.4330,-82.6670,0.012,1111122 
COMPS,ioos:station:USF.COMPS:ARP:1,2009-08-04T13:18:00Z,28.4330,-82.6670,0.014,1111122 
COMPS,ioos:station:USF.COMPS:ARP:1,2009-08-04T13:24:00Z,28.4330,-82.6670,0.027,1111122 
COMPS,ioos:station:USF.COMPS:ARP:1,2009-08-04T13:30:00Z,28.4330,-82.6670,0.036,1111122 
COMPS,ioos:station:USF.COMPS:ARP:1,2009-08-04T13:36:00Z,28.4330,-82.6670,0.055,1111122 
COMPS,ioos:station:USF.COMPS:ARP:1,2009-08-04T13:42:00Z,28.4330,-82.6670,0.074,1111122 
COMPS,ioos:station:USF.COMPS:ARP:1,2009-08-04T13:48:00Z,28.4330,-82.6670,0.094,1111122 
COMPS,ioos:station:USF.COMPS:ARP:1,2009-08-04T13:54:00Z,28.4330,-82.6670,0.113,1111122 
COMPS,ioos:station:USF.COMPS:ARP:1,2009-08-04T14:00:00Z,28.4330,-82.6670,0.132,1111122 
COMPS,ioos:station:USF.COMPS:ARP:1,2009-08-04T14:06:00Z,28.4330,-82.6670,0.151,1111122 
COMPS,ioos:station:USF.COMPS:ARP:1,2009-08-04T14:12:00Z,28.4330,-82.6670,0.169,1111122 
COMPS,ioos:station:USF.COMPS:ARP:1,2009-08-04T14:18:00Z,28.4330,-82.6670,0.189,1111122 
COMPS,ioos:station:USF.COMPS:ARP:1,2009-08-04T14:24:00Z,28.4330,-82.6670,0.209,1111122 
COMPS,ioos:station:USF.COMPS:ARP:1,2009-08-04T14:30:00Z,28.4330,-82.6670,0.228,1111122 
COMPS,ioos:station:USF.COMPS:ARP:1,2009-08-04T14:36:00Z,28.4330,-82.6670,0.249,1111122 
COMPS,ioos:station:USF.COMPS:ARP:1,2009-08-04T14:42:00Z,28.4330,-82.6670,0.27,1111122 
COMPS,ioos:station:USF.COMPS:ARP:1,2009-08-04T14:48:00Z,28.4330,-82.6670,0.29,1111122 
COMPS,ioos:station:USF.COMPS:ARP:1,2009-08-04T14:54:00Z,28.4330,-82.6670,0.309,1111122 
COMPS,ioos:station:USF.COMPS:ARP:1,2009-08-04T15:00:00Z,28.4330,-82.6670,0.328,1111122 
COMPS,ioos:station:USF.COMPS:ARP:1,2009-08-04T15:06:00Z,28.4330,-82.6670,0.349,1111122 
COMPS,ioos:station:USF.COMPS:ARP:1,2009-08-04T15:12:00Z,28.4330,-82.6670,0.366,1111122 
COMPS,ioos:station:USF.COMPS:ARP:1,2009-08-04T15:18:00Z,28.4330,-82.6670,0.383,1111122 
COMPS,ioos:station:USF.COMPS:ARP:1,2009-08-04T15:24:00Z,28.4330,-82.6670,0.403,1111122 
COMPS,ioos:station:USF.COMPS:ARP:1,2009-08-04T15:30:00Z,28.4330,-82.6670,0.422,1111122 
COMPS,ioos:station:USF.COMPS:ARP:1,2009-08-04T15:36:00Z,28.4330,-82.6670,0.439,1111122 
COMPS,ioos:station:USF.COMPS:ARP:1,2009-08-04T15:42:00Z,28.4330,-82.6670,0.457,1111122 
COMPS,ioos:station:USF.COMPS:ARP:1,2009-08-04T15:48:00Z,28.4330,-82.6670,0.473,1111122 
COMPS,ioos:station:USF.COMPS:ARP:1,2009-08-04T15:54:00Z,28.4330,-82.6670,0.487,1111122 
COMPS,ioos:station:USF.COMPS:ARP:1,2009-08-04T17:00:00Z,28.4330,-82.6670,0.547,1111122 
COMPS,ioos:station:USF.COMPS:ARP:1,2009-08-04T17:06:00Z,28.4330,-82.6670,0.542,1111122 
COMPS,ioos:station:USF.COMPS:ARP:1,2009-08-04T17:12:00Z,28.4330,-82.6670,0.539,1111122 
COMPS,ioos:station:USF.COMPS:ARP:1,2009-08-04T17:18:00Z,28.4330,-82.6670,0.532,1111122 
COMPS,ioos:station:USF.COMPS:ARP:1,2009-08-04T17:24:00Z,28.4330,-82.6670,0.527,1111122 
COMPS,ioos:station:USF.COMPS:ARP:1,2009-08-04T17:30:00Z,28.4330,-82.6670,0.52,1111122 
COMPS,ioos:station:USF.COMPS:ARP:1,2009-08-04T17:36:00Z,28.4330,-82.6670,0.513,1111122 
COMPS,ioos:station:USF.COMPS:ARP:1,2009-08-04T17:42:00Z,28.4330,-82.6670,0.501,1111122 
COMPS,ioos:station:USF.COMPS:ARP:1,2009-08-04T17:48:00Z,28.4330,-82.6670,0.497,1111122 
COMPS,ioos:station:USF.COMPS:ARP:1,2009-08-04T17:54:00Z,28.4330,-82.6670,0.483,1111122 